Year,Month,Day,Hour,Minute,Value (Times are PST for temperature in C)
2010,08,14,00,00,20.30
2010,08,14,00,01,20.30
2010,08,14,00,02,20.30
2010,08,14,00,03,20.30
2010,08,14,00,04,20.20
2010,08,14,00,05,20.20
2010,08,14,00,06,20.20
2010,08,14,00,07,20.20
2010,08,14,00,08,20.20
2010,08,14,00,09,20.10
2010,08,14,00,10,20.10
2010,08,14,00,11,20.10
2010,08,14,00,12,20.10
2010,08,14,00,13,20.10
2010,08,14,00,14,20.00
2010,08,14,00,15,20.00
2010,08,14,00,16,20.00
2010,08,14,00,17,20.00
2010,08,14,00,18,19.90
2010,08,14,00,19,19.90
2010,08,14,00,20,19.90
2010,08,14,00,21,19.90
2010,08,14,00,22,19.80
2010,08,14,00,23,19.80
2010,08,14,00,24,19.80
2010,08,14,00,25,19.80
2010,08,14,00,26,19.80
2010,08,14,00,27,19.70
2010,08,14,00,28,19.70
2010,08,14,00,29,19.70
2010,08,14,00,30,19.70
2010,08,14,00,31,19.70
2010,08,14,00,32,19.70
2010,08,14,00,33,19.70
2010,08,14,00,34,19.70
2010,08,14,00,35,19.60
2010,08,14,00,36,19.60
2010,08,14,00,37,19.60
2010,08,14,00,38,19.60
2010,08,14,00,39,19.60
2010,08,14,00,40,19.50
2010,08,14,00,41,19.50
2010,08,14,00,42,19.50
2010,08,14,00,43,19.40
2010,08,14,00,44,19.40
2010,08,14,00,45,19.30
2010,08,14,00,46,19.30
2010,08,14,00,47,19.30
2010,08,14,00,48,19.30
2010,08,14,00,49,19.30
2010,08,14,00,50,19.30
2010,08,14,00,51,19.20
2010,08,14,00,52,19.20
2010,08,14,00,53,19.20
2010,08,14,00,54,19.10
2010,08,14,00,55,19.10
2010,08,14,00,56,19.10
2010,08,14,00,57,19.10
2010,08,14,00,58,19.10
2010,08,14,00,59,19.00
2010,08,14,01,00,19.00
2010,08,14,01,01,19.00
2010,08,14,01,02,19.00
2010,08,14,01,03,18.90
2010,08,14,01,04,18.90
2010,08,14,01,05,18.90
2010,08,14,01,06,18.90
2010,08,14,01,07,18.90
2010,08,14,01,08,18.80
2010,08,14,01,09,18.80
2010,08,14,01,10,18.80
2010,08,14,01,11,18.80
2010,08,14,01,12,18.80
2010,08,14,01,13,18.80
2010,08,14,01,14,18.80
2010,08,14,01,15,18.80
2010,08,14,01,16,18.80
2010,08,14,01,17,18.70
2010,08,14,01,18,18.70
2010,08,14,01,19,18.70
2010,08,14,01,20,18.70
2010,08,14,01,21,18.60
2010,08,14,01,22,18.60
2010,08,14,01,23,18.60
2010,08,14,01,24,18.50
2010,08,14,01,25,18.50
2010,08,14,01,26,18.40
2010,08,14,01,27,18.40
2010,08,14,01,28,18.40
2010,08,14,01,29,18.40
2010,08,14,01,30,18.40
2010,08,14,01,31,18.30
2010,08,14,01,32,18.30
2010,08,14,01,33,18.30
2010,08,14,01,34,18.30
2010,08,14,01,35,18.30
2010,08,14,01,36,18.30
2010,08,14,01,37,18.30
2010,08,14,01,38,18.20
2010,08,14,01,39,18.20
2010,08,14,01,40,18.20
2010,08,14,01,41,18.20
2010,08,14,01,42,18.20
2010,08,14,01,43,18.20
2010,08,14,01,44,18.20
2010,08,14,01,45,18.20
2010,08,14,01,46,18.10
2010,08,14,01,47,18.10
2010,08,14,01,48,18.10
2010,08,14,01,49,18.10
2010,08,14,01,50,18.10
2010,08,14,01,51,18.00
2010,08,14,01,52,18.00
2010,08,14,01,53,17.90
2010,08,14,01,54,17.90
2010,08,14,01,55,17.90
2010,08,14,01,56,17.90
2010,08,14,01,57,17.90
2010,08,14,01,58,17.90
2010,08,14,01,59,17.80
2010,08,14,02,00,17.80
2010,08,14,02,01,17.80
2010,08,14,02,02,17.80
2010,08,14,02,03,17.80
2010,08,14,02,04,17.80
2010,08,14,02,05,17.80
2010,08,14,02,06,17.80
2010,08,14,02,07,17.80
2010,08,14,02,08,17.70
2010,08,14,02,09,17.70
2010,08,14,02,10,17.70
2010,08,14,02,11,17.70
2010,08,14,02,12,17.70
2010,08,14,02,13,17.70
2010,08,14,02,14,17.70
2010,08,14,02,15,17.70
2010,08,14,02,16,17.70
2010,08,14,02,17,17.70
2010,08,14,02,18,17.70
2010,08,14,02,19,17.70
2010,08,14,02,20,17.70
2010,08,14,02,21,17.70
2010,08,14,02,22,17.70
2010,08,14,02,23,17.60
2010,08,14,02,24,17.60
2010,08,14,02,25,17.60
2010,08,14,02,26,17.60
2010,08,14,02,27,17.50
2010,08,14,02,28,17.50
2010,08,14,02,29,17.50
2010,08,14,02,30,17.50
2010,08,14,02,31,17.40
2010,08,14,02,32,17.40
2010,08,14,02,33,17.40
2010,08,14,02,34,17.40
2010,08,14,02,35,17.40
2010,08,14,02,36,17.40
2010,08,14,02,37,17.40
2010,08,14,02,38,17.40
2010,08,14,02,39,17.40
2010,08,14,02,40,17.40
2010,08,14,02,41,17.40
2010,08,14,02,42,17.40
2010,08,14,02,43,17.40
2010,08,14,02,44,17.30
2010,08,14,02,45,17.30
2010,08,14,02,46,17.30
2010,08,14,02,47,17.30
2010,08,14,02,48,17.20
2010,08,14,02,49,17.20
2010,08,14,02,50,17.20
2010,08,14,02,51,17.20
2010,08,14,02,52,17.20
2010,08,14,02,53,17.10
2010,08,14,02,54,17.10
2010,08,14,02,55,17.10
2010,08,14,02,56,17.10
2010,08,14,02,57,17.10
2010,08,14,02,58,17.10
2010,08,14,02,59,17.10
2010,08,14,03,00,17.10
2010,08,14,03,01,17.10
2010,08,14,03,02,17.00
2010,08,14,03,06,16.90
2010,08,14,03,07,16.90
2010,08,14,03,08,16.90
2010,08,14,03,09,16.90
2010,08,14,03,10,16.80
2010,08,14,03,11,16.80
2010,08,14,03,12,16.80
2010,08,14,03,13,16.80
2010,08,14,03,14,16.80
2010,08,14,03,15,16.80
2010,08,14,03,16,16.80
2010,08,14,03,17,16.70
2010,08,14,03,18,16.70
2010,08,14,03,19,16.70
2010,08,14,03,20,16.70
2010,08,14,03,21,16.70
2010,08,14,03,22,16.70
2010,08,14,03,23,16.70
2010,08,14,03,24,16.70
2010,08,14,03,25,16.70
2010,08,14,03,26,16.70
2010,08,14,03,27,16.60
2010,08,14,03,28,16.70
2010,08,14,03,29,16.70
2010,08,14,03,30,16.70
2010,08,14,03,31,16.60
2010,08,14,03,32,16.70
2010,08,14,03,33,16.70
2010,08,14,03,34,16.70
2010,08,14,03,35,16.80
2010,08,14,03,36,16.80
2010,08,14,03,37,16.80
2010,08,14,03,38,16.80
2010,08,14,03,39,16.80
2010,08,14,03,40,16.80
2010,08,14,03,41,16.80
2010,08,14,03,42,16.80
2010,08,14,03,43,16.80
2010,08,14,03,44,16.80
2010,08,14,03,45,16.80
2010,08,14,03,46,16.90
2010,08,14,03,47,16.90
2010,08,14,03,48,16.90
2010,08,14,03,49,16.90
2010,08,14,03,50,16.90
2010,08,14,03,51,16.90
2010,08,14,03,52,17.00
2010,08,14,03,53,17.00
2010,08,14,03,54,17.00
2010,08,14,03,55,17.00
2010,08,14,03,56,17.00
2010,08,14,03,57,17.10
2010,08,14,03,58,17.10
2010,08,14,03,59,17.00
2010,08,14,04,00,17.00
2010,08,14,04,01,16.90
2010,08,14,04,02,16.90
2010,08,14,04,03,16.90
2010,08,14,04,04,16.80
2010,08,14,04,05,16.80
2010,08,14,04,06,16.80
2010,08,14,04,07,16.80
2010,08,14,04,08,16.80
2010,08,14,04,09,16.70
2010,08,14,04,10,16.70
2010,08,14,04,11,16.70
2010,08,14,04,12,16.70
2010,08,14,04,13,16.60
2010,08,14,04,14,16.60
2010,08,14,04,15,16.60
2010,08,14,04,16,16.60
2010,08,14,04,17,16.60
2010,08,14,04,18,16.50
2010,08,14,04,19,16.50
2010,08,14,04,20,16.40
2010,08,14,04,21,16.40
2010,08,14,04,22,16.40
2010,08,14,04,23,16.40
2010,08,14,04,24,16.40
2010,08,14,04,25,16.40
2010,08,14,04,26,16.40
2010,08,14,04,27,16.40
2010,08,14,04,28,16.40
2010,08,14,04,29,16.40
2010,08,14,04,30,16.30
2010,08,14,04,31,16.30
2010,08,14,04,32,16.30
2010,08,14,04,33,16.30
2010,08,14,04,34,16.30
2010,08,14,04,35,16.30
2010,08,14,04,36,16.20
2010,08,14,04,37,16.20
2010,08,14,04,38,16.20
2010,08,14,04,39,16.20
2010,08,14,04,40,16.20
2010,08,14,04,41,16.30
2010,08,14,04,42,16.30
2010,08,14,04,43,16.30
2010,08,14,04,44,16.30
2010,08,14,04,45,16.30
2010,08,14,04,46,16.30
2010,08,14,04,47,16.30
2010,08,14,04,48,16.30
2010,08,14,04,49,16.30
2010,08,14,04,50,16.30
2010,08,14,04,51,16.30
2010,08,14,04,52,16.30
2010,08,14,04,53,16.30
2010,08,14,04,54,16.30
2010,08,14,04,55,16.40
2010,08,14,04,56,16.40
2010,08,14,04,57,16.40
2010,08,14,04,58,16.40
2010,08,14,04,59,16.40
2010,08,14,05,00,16.40
2010,08,14,05,01,16.40
2010,08,14,05,02,16.40
2010,08,14,05,03,16.40
2010,08,14,05,04,16.40
2010,08,14,05,05,16.40
2010,08,14,05,06,16.40
2010,08,14,05,07,16.40
2010,08,14,05,08,16.50
2010,08,14,05,09,16.50
2010,08,14,05,10,16.50
2010,08,14,05,11,16.50
2010,08,14,05,12,16.50
2010,08,14,05,13,16.40
2010,08,14,05,14,16.40
2010,08,14,05,15,16.40
2010,08,14,05,16,16.40
2010,08,14,05,17,16.40
2010,08,14,05,18,16.40
2010,08,14,05,19,16.40
2010,08,14,05,20,16.30
2010,08,14,05,21,16.30
2010,08,14,05,22,16.30
2010,08,14,05,23,16.30
2010,08,14,05,24,16.20
2010,08,14,05,25,16.20
2010,08,14,05,26,16.20
2010,08,14,05,27,16.20
2010,08,14,05,28,16.20
2010,08,14,05,29,16.20
2010,08,14,05,30,16.10
2010,08,14,05,31,16.10
2010,08,14,05,32,16.10
2010,08,14,05,33,16.00
2010,08,14,05,34,16.00
2010,08,14,05,35,16.00
2010,08,14,05,36,15.90
2010,08,14,05,37,15.90
2010,08,14,05,38,15.90
2010,08,14,05,39,15.80
2010,08,14,05,40,15.80
2010,08,14,05,41,15.80
2010,08,14,05,42,15.70
2010,08,14,05,43,15.70
2010,08,14,05,44,15.70
2010,08,14,05,45,15.60
2010,08,14,05,46,15.60
2010,08,14,05,47,15.60
2010,08,14,05,48,15.50
2010,08,14,05,49,15.50
2010,08,14,05,50,15.50
2010,08,14,05,51,15.50
2010,08,14,05,52,15.50
2010,08,14,05,53,15.50
2010,08,14,05,54,15.40
2010,08,14,05,55,15.40
2010,08,14,05,56,15.40
2010,08,14,05,57,15.40
2010,08,14,05,58,15.40
2010,08,14,05,59,15.30
2010,08,14,06,00,15.30
2010,08,14,06,01,15.30
2010,08,14,06,02,15.30
2010,08,14,06,03,15.30
2010,08,14,06,04,15.30
2010,08,14,06,05,15.30
2010,08,14,06,06,15.30
2010,08,14,06,07,15.30
2010,08,14,06,08,15.30
2010,08,14,06,09,15.30
2010,08,14,06,10,15.30
2010,08,14,06,11,15.30
2010,08,14,06,12,15.30
2010,08,14,06,13,15.30
2010,08,14,06,14,15.30
2010,08,14,06,15,15.40
2010,08,14,06,16,15.40
2010,08,14,06,17,15.40
2010,08,14,06,18,15.40
2010,08,14,06,19,15.40
2010,08,14,06,20,15.40
2010,08,14,06,21,15.40
2010,08,14,06,22,15.40
2010,08,14,06,23,15.40
2010,08,14,06,24,15.40
2010,08,14,06,25,15.40
2010,08,14,06,26,15.40
2010,08,14,06,27,15.40
2010,08,14,06,28,15.40
2010,08,14,06,29,15.40
2010,08,14,06,30,15.40
2010,08,14,06,31,15.40
2010,08,14,06,32,15.40
2010,08,14,06,33,15.40
2010,08,14,06,34,15.40
2010,08,14,06,35,15.40
2010,08,14,06,36,15.40
2010,08,14,06,37,15.40
2010,08,14,06,38,15.40
2010,08,14,06,39,15.50
2010,08,14,06,40,15.50
2010,08,14,06,41,15.50
2010,08,14,06,42,15.50
2010,08,14,06,43,15.50
2010,08,14,06,44,15.50
2010,08,14,06,45,15.50
2010,08,14,06,46,15.50
2010,08,14,06,47,15.50
2010,08,14,06,48,15.50
2010,08,14,06,49,15.50
2010,08,14,06,50,15.50
2010,08,14,06,51,15.50
2010,08,14,06,52,15.50
2010,08,14,06,53,15.50
2010,08,14,06,54,15.50
2010,08,14,06,55,15.50
2010,08,14,06,56,15.50
2010,08,14,06,57,15.50
2010,08,14,06,58,15.50
2010,08,14,06,59,15.50
2010,08,14,07,00,15.50
2010,08,14,07,01,15.40
2010,08,14,07,02,15.40
2010,08,14,07,03,15.40
2010,08,14,07,04,15.40
2010,08,14,07,05,15.40
2010,08,14,07,06,15.50
2010,08,14,07,07,15.50
2010,08,14,07,08,15.50
2010,08,14,07,09,15.50
2010,08,14,07,10,15.50
2010,08,14,07,11,15.50
2010,08,14,07,12,15.60
2010,08,14,07,13,15.60
2010,08,14,07,14,15.60
2010,08,14,07,15,15.60
2010,08,14,07,16,15.60
2010,08,14,07,17,15.60
2010,08,14,07,18,15.70
2010,08,14,07,19,15.70
2010,08,14,07,20,15.70
2010,08,14,07,21,15.80
2010,08,14,07,22,15.80
2010,08,14,07,23,15.80
2010,08,14,07,24,15.80
2010,08,14,07,25,15.90
2010,08,14,07,26,15.90
2010,08,14,07,27,16.00
2010,08,14,07,28,16.00
2010,08,14,07,29,16.10
2010,08,14,07,30,16.10
2010,08,14,07,31,16.10
2010,08,14,07,32,16.10
2010,08,14,07,33,16.20
2010,08,14,07,34,16.20
2010,08,14,07,35,16.20
2010,08,14,07,36,16.30
2010,08,14,07,37,16.30
2010,08,14,07,38,16.30
2010,08,14,07,39,16.30
2010,08,14,07,40,16.40
2010,08,14,07,41,16.40
2010,08,14,07,42,16.50
2010,08,14,07,43,16.60
2010,08,14,07,44,16.70
2010,08,14,07,45,16.80
2010,08,14,07,46,16.90
2010,08,14,07,47,16.90
2010,08,14,07,48,17.00
2010,08,14,07,49,17.10
2010,08,14,07,50,17.10
2010,08,14,07,51,17.20
2010,08,14,07,52,17.30
2010,08,14,07,53,17.30
2010,08,14,07,54,17.40
2010,08,14,07,55,17.50
2010,08,14,07,56,17.50
2010,08,14,07,57,17.60
2010,08,14,07,58,17.70
2010,08,14,07,59,17.80
2010,08,14,08,00,17.80
2010,08,14,08,01,17.90
2010,08,14,08,02,17.90
2010,08,14,08,03,18.00
2010,08,14,08,04,18.00
2010,08,14,08,05,18.10
2010,08,14,08,06,18.10
2010,08,14,08,07,18.10
2010,08,14,08,08,18.10
2010,08,14,08,09,18.20
2010,08,14,08,10,18.20
2010,08,14,08,11,18.30
2010,08,14,08,12,18.30
2010,08,14,08,13,18.30
2010,08,14,08,14,18.40
2010,08,14,08,15,18.40
2010,08,14,08,16,18.50
2010,08,14,08,17,18.50
2010,08,14,08,18,18.60
2010,08,14,08,19,18.60
2010,08,14,08,20,18.60
2010,08,14,08,21,18.60
2010,08,14,08,22,18.60
2010,08,14,08,23,18.60
2010,08,14,08,24,18.60
2010,08,14,08,25,18.70
2010,08,14,08,26,18.70
2010,08,14,08,27,18.70
2010,08,14,08,28,18.80
2010,08,14,08,29,18.80
2010,08,14,08,30,18.80
2010,08,14,08,31,18.80
2010,08,14,08,32,18.80
2010,08,14,08,33,18.90
2010,08,14,08,34,18.90
2010,08,14,08,35,19.00
2010,08,14,08,36,19.10
2010,08,14,08,37,19.20
2010,08,14,08,38,19.30
2010,08,14,08,39,19.40
2010,08,14,08,40,19.40
2010,08,14,08,41,19.50
2010,08,14,08,42,19.60
2010,08,14,08,43,19.70
2010,08,14,08,44,19.70
2010,08,14,08,45,19.80
2010,08,14,08,46,19.80
2010,08,14,08,47,19.90
2010,08,14,08,48,19.90
2010,08,14,08,49,20.00
2010,08,14,08,50,20.10
2010,08,14,08,51,20.10
2010,08,14,08,52,20.10
2010,08,14,08,53,20.20
2010,08,14,08,54,20.20
2010,08,14,08,55,20.20
2010,08,14,08,56,20.20
2010,08,14,08,57,20.20
2010,08,14,08,58,20.20
2010,08,14,08,59,20.10
2010,08,14,09,00,20.10
2010,08,14,09,01,20.10
2010,08,14,09,02,20.10
2010,08,14,09,03,20.10
2010,08,14,09,04,20.10
2010,08,14,09,05,20.20
2010,08,14,09,06,20.20
2010,08,14,09,07,20.20
2010,08,14,09,08,20.30
2010,08,14,09,09,20.40
2010,08,14,09,10,20.40
2010,08,14,09,11,20.50
2010,08,14,09,12,20.60
2010,08,14,09,13,20.70
2010,08,14,09,14,20.70
2010,08,14,09,15,20.80
2010,08,14,09,16,20.90
2010,08,14,09,17,20.90
2010,08,14,09,18,21.00
2010,08,14,09,19,21.00
2010,08,14,09,20,21.10
2010,08,14,09,21,21.20
2010,08,14,09,22,21.30
2010,08,14,09,23,21.30
2010,08,14,09,24,21.30
2010,08,14,09,25,21.40
2010,08,14,09,26,21.40
2010,08,14,09,27,21.50
2010,08,14,09,28,21.50
2010,08,14,09,29,21.60
2010,08,14,09,30,21.70
2010,08,14,09,31,21.80
2010,08,14,09,32,21.80
2010,08,14,09,33,21.90
2010,08,14,09,34,22.00
2010,08,14,09,35,22.00
2010,08,14,09,36,22.10
2010,08,14,09,37,22.10
2010,08,14,09,38,22.10
2010,08,14,09,39,22.20
2010,08,14,09,40,22.20
2010,08,14,09,41,22.30
2010,08,14,09,42,22.30
2010,08,14,09,43,22.40
2010,08,14,09,44,22.40
2010,08,14,09,45,22.40
2010,08,14,09,46,22.40
2010,08,14,09,47,22.40
2010,08,14,09,48,22.40
2010,08,14,09,49,22.40
2010,08,14,09,50,22.40
2010,08,14,09,51,22.40
2010,08,14,09,52,22.40
2010,08,14,09,53,22.50
2010,08,14,09,54,22.60
2010,08,14,09,55,22.60
2010,08,14,09,56,22.70
2010,08,14,09,57,22.80
2010,08,14,09,58,22.80
2010,08,14,09,59,22.90
2010,08,14,10,00,23.00
2010,08,14,10,01,23.00
2010,08,14,10,02,23.10
2010,08,14,10,03,23.10
2010,08,14,10,04,23.10
2010,08,14,10,05,23.20
2010,08,14,10,06,23.30
2010,08,14,10,07,23.40
2010,08,14,10,08,23.50
2010,08,14,10,09,23.50
2010,08,14,10,10,23.60
2010,08,14,10,11,23.60
2010,08,14,10,12,23.50
2010,08,14,10,13,23.50
2010,08,14,10,14,23.60
2010,08,14,10,15,23.60
2010,08,14,10,16,23.70
2010,08,14,10,17,23.80
2010,08,14,10,18,23.90
2010,08,14,10,19,24.00
2010,08,14,10,20,24.10
2010,08,14,10,21,24.10
2010,08,14,10,22,24.10
2010,08,14,10,23,24.10
2010,08,14,10,24,24.20
2010,08,14,10,25,24.30
2010,08,14,10,26,24.30
2010,08,14,10,27,24.40
2010,08,14,10,28,24.40
2010,08,14,10,29,24.40
2010,08,14,10,30,24.50
2010,08,14,10,31,24.60
2010,08,14,10,32,24.70
2010,08,14,10,33,24.70
2010,08,14,10,34,24.80
2010,08,14,10,35,24.80
2010,08,14,10,36,24.80
2010,08,14,10,37,24.90
2010,08,14,10,38,25.00
2010,08,14,10,39,25.10
2010,08,14,10,40,25.10
2010,08,14,10,41,25.20
2010,08,14,10,42,25.20
2010,08,14,10,43,25.30
2010,08,14,10,44,25.30
2010,08,14,10,45,25.40
2010,08,14,10,46,25.40
2010,08,14,10,47,25.50
2010,08,14,10,48,25.60
2010,08,14,10,49,25.60
2010,08,14,10,50,25.70
2010,08,14,10,51,25.70
2010,08,14,10,52,25.70
2010,08,14,10,53,25.80
2010,08,14,10,54,25.80
2010,08,14,10,55,26.00
2010,08,14,10,56,26.10
2010,08,14,10,57,26.20
2010,08,14,10,58,26.30
2010,08,14,10,59,26.40
2010,08,14,11,00,26.50
2010,08,14,11,01,26.50
2010,08,14,11,02,26.50
2010,08,14,11,03,26.50
2010,08,14,11,04,26.60
2010,08,14,11,05,26.70
2010,08,14,11,06,26.80
2010,08,14,11,07,26.80
2010,08,14,11,08,26.90
2010,08,14,11,09,26.90
2010,08,14,11,10,27.00
2010,08,14,11,11,27.00
2010,08,14,11,12,27.10
2010,08,14,11,13,27.10
2010,08,14,11,14,27.00
2010,08,14,11,15,27.00
2010,08,14,11,16,27.00
2010,08,14,11,17,27.00
2010,08,14,11,18,27.00
2010,08,14,11,19,27.00
2010,08,14,11,20,27.10
2010,08,14,11,21,27.10
2010,08,14,11,22,27.20
2010,08,14,11,23,27.20
2010,08,14,11,24,27.20
2010,08,14,11,25,27.30
2010,08,14,11,26,27.30
2010,08,14,11,27,27.40
2010,08,14,11,28,27.50
2010,08,14,11,29,27.60
2010,08,14,11,30,27.60
2010,08,14,11,31,27.60
2010,08,14,11,32,27.80
2010,08,14,11,33,27.90
2010,08,14,11,34,28.00
2010,08,14,11,35,28.10
2010,08,14,11,36,28.20
2010,08,14,11,37,28.30
2010,08,14,11,38,28.30
2010,08,14,11,39,28.30
2010,08,14,11,40,28.30
2010,08,14,11,41,28.40
2010,08,14,11,42,28.60
2010,08,14,11,43,28.70
2010,08,14,11,44,28.70
2010,08,14,11,45,28.80
2010,08,14,11,46,28.80
2010,08,14,11,47,28.90
2010,08,14,11,48,29.00
2010,08,14,11,49,29.00
2010,08,14,11,50,29.10
2010,08,14,11,51,29.10
2010,08,14,11,52,29.20
2010,08,14,11,53,29.20
2010,08,14,11,54,29.20
2010,08,14,11,55,29.30
2010,08,14,11,56,29.40
2010,08,14,11,57,29.50
2010,08,14,11,58,29.50
2010,08,14,11,59,29.60
2010,08,14,12,00,29.60
2010,08,14,12,01,29.70
2010,08,14,12,02,29.70
2010,08,14,12,03,29.80
2010,08,14,12,04,29.90
2010,08,14,12,05,30.00
2010,08,14,12,06,30.20
2010,08,14,12,07,30.20
2010,08,14,12,08,30.30
2010,08,14,12,09,30.30
2010,08,14,12,10,30.40
2010,08,14,12,11,30.40
2010,08,14,12,12,30.40
2010,08,14,12,13,30.30
2010,08,14,12,14,30.30
2010,08,14,12,15,30.30
2010,08,14,12,16,30.40
2010,08,14,12,17,30.50
2010,08,14,12,18,30.60
2010,08,14,12,19,30.70
2010,08,14,12,20,30.80
2010,08,14,12,21,30.90
2010,08,14,12,22,31.00
2010,08,14,12,23,31.10
2010,08,14,12,24,31.10
2010,08,14,12,25,31.20
2010,08,14,12,26,31.20
2010,08,14,12,27,31.30
2010,08,14,12,28,31.40
2010,08,14,12,29,31.60
2010,08,14,12,30,31.70
2010,08,14,12,31,31.80
2010,08,14,12,32,32.00
2010,08,14,12,33,32.00
2010,08,14,12,34,32.10
2010,08,14,12,35,32.20
2010,08,14,12,36,32.20
2010,08,14,12,37,32.30
2010,08,14,12,38,32.30
2010,08,14,12,39,32.40
2010,08,14,12,40,32.40
2010,08,14,12,41,32.40
2010,08,14,12,42,32.40
2010,08,14,12,43,32.50
2010,08,14,12,44,32.60
2010,08,14,12,45,32.70
2010,08,14,12,46,32.60
2010,08,14,12,47,32.60
2010,08,14,12,48,32.70
2010,08,14,12,49,32.70
2010,08,14,12,50,32.70
2010,08,14,12,51,32.70
2010,08,14,12,52,32.70
2010,08,14,12,53,32.60
2010,08,14,12,54,32.50
2010,08,14,12,55,32.50
2010,08,14,12,56,32.50
2010,08,14,12,57,32.50
2010,08,14,12,58,32.50
2010,08,14,12,59,32.50
2010,08,14,13,00,32.50
2010,08,14,13,01,32.50
2010,08,14,13,02,32.40
2010,08,14,13,03,32.50
2010,08,14,13,04,32.50
2010,08,14,13,05,32.50
2010,08,14,13,06,32.60
2010,08,14,13,07,32.80
2010,08,14,13,08,32.90
2010,08,14,13,09,33.00
2010,08,14,13,10,32.90
2010,08,14,13,11,32.90
2010,08,14,13,12,32.90
2010,08,14,13,13,32.90
2010,08,14,13,14,33.00
2010,08,14,13,15,33.00
2010,08,14,13,16,33.00
2010,08,14,13,17,33.10
2010,08,14,13,18,33.00
2010,08,14,13,19,33.00
2010,08,14,13,20,33.10
2010,08,14,13,21,33.20
2010,08,14,13,22,33.20
2010,08,14,13,23,33.30
2010,08,14,13,24,33.30
2010,08,14,13,25,33.30
2010,08,14,13,26,33.40
2010,08,14,13,27,33.50
2010,08,14,13,28,33.50
2010,08,14,13,29,33.60
2010,08,14,13,30,33.60
2010,08,14,13,31,33.70
2010,08,14,13,32,33.80
2010,08,14,13,33,33.80
2010,08,14,13,34,33.80
2010,08,14,13,35,33.80
2010,08,14,13,36,33.80
2010,08,14,13,37,33.80
2010,08,14,13,38,33.70
2010,08,14,13,39,33.60
2010,08,14,13,40,33.50
2010,08,14,13,41,33.40
2010,08,14,13,42,33.40
2010,08,14,13,43,33.40
2010,08,14,13,44,33.50
2010,08,14,13,45,33.60
2010,08,14,13,46,33.60
2010,08,14,13,47,33.60
2010,08,14,13,48,33.60
2010,08,14,13,49,33.50
2010,08,14,13,50,33.50
2010,08,14,13,51,33.50
2010,08,14,13,52,33.60
2010,08,14,13,53,33.70
2010,08,14,13,54,33.80
2010,08,14,13,55,33.90
2010,08,14,13,56,34.00
2010,08,14,13,57,33.80
2010,08,14,13,58,33.70
2010,08,14,13,59,33.60
2010,08,14,14,00,33.60
2010,08,14,14,01,33.60
2010,08,14,14,02,33.60
2010,08,14,14,03,33.60
2010,08,14,14,04,33.70
2010,08,14,14,05,33.80
2010,08,14,14,06,33.90
2010,08,14,14,07,33.90
2010,08,14,14,08,33.90
2010,08,14,14,09,33.90
2010,08,14,14,10,34.00
2010,08,14,14,11,34.10
2010,08,14,14,12,34.10
2010,08,14,14,13,34.10
2010,08,14,14,14,34.10
2010,08,14,14,15,34.10
2010,08,14,14,16,34.10
2010,08,14,14,17,34.10
2010,08,14,14,18,34.00
2010,08,14,14,19,33.90
2010,08,14,14,20,33.90
2010,08,14,14,21,33.80
2010,08,14,14,22,33.80
2010,08,14,14,23,33.80
2010,08,14,14,24,33.90
2010,08,14,14,25,33.90
2010,08,14,14,26,34.00
2010,08,14,14,27,33.90
2010,08,14,14,28,33.90
2010,08,14,14,29,33.90
2010,08,14,14,30,34.00
2010,08,14,14,31,34.00
2010,08,14,14,32,34.00
2010,08,14,14,33,34.00
2010,08,14,14,34,34.00
2010,08,14,14,35,34.00
2010,08,14,14,36,34.00
2010,08,14,14,37,34.10
2010,08,14,14,38,34.10
2010,08,14,14,39,34.00
2010,08,14,14,40,33.90
2010,08,14,14,41,33.90
2010,08,14,14,42,33.90
2010,08,14,14,43,33.90
2010,08,14,14,44,33.90
2010,08,14,14,45,34.00
2010,08,14,14,46,34.00
2010,08,14,14,47,34.00
2010,08,14,14,48,33.90
2010,08,14,14,49,33.90
2010,08,14,14,50,33.90
2010,08,14,14,51,33.90
2010,08,14,14,52,34.00
2010,08,14,14,53,34.10
2010,08,14,14,54,34.20
2010,08,14,14,55,34.30
2010,08,14,14,56,34.50
2010,08,14,14,57,34.60
2010,08,14,14,58,34.60
2010,08,14,14,59,34.60
2010,08,14,15,00,34.60
2010,08,14,15,01,34.60
2010,08,14,15,02,34.60
2010,08,14,15,03,34.60
2010,08,14,15,04,34.60
2010,08,14,15,05,34.50
2010,08,14,15,06,34.60
2010,08,14,15,07,34.50
2010,08,14,15,08,34.40
2010,08,14,15,09,34.40
2010,08,14,15,10,34.40
2010,08,14,15,11,34.30
2010,08,14,15,12,34.30
2010,08,14,15,13,34.30
2010,08,14,15,14,34.30
2010,08,14,15,15,34.30
2010,08,14,15,16,34.30
2010,08,14,15,17,34.40
2010,08,14,15,18,34.30
2010,08,14,15,19,34.30
2010,08,14,15,20,34.20
2010,08,14,15,21,34.20
2010,08,14,15,22,34.20
2010,08,14,15,23,34.30
2010,08,14,15,24,34.20
2010,08,14,15,25,34.20
2010,08,14,15,26,34.20
2010,08,14,15,27,34.30
2010,08,14,15,28,34.20
2010,08,14,15,29,34.30
2010,08,14,15,30,34.30
2010,08,14,15,31,34.30
2010,08,14,15,32,34.30
2010,08,14,15,33,34.30
2010,08,14,15,34,34.30
2010,08,14,15,35,34.20
2010,08,14,15,36,34.30
2010,08,14,15,37,34.30
2010,08,14,15,38,34.40
2010,08,14,15,39,34.40
2010,08,14,15,40,34.20
2010,08,14,15,41,34.10
2010,08,14,15,42,34.00
2010,08,14,15,43,34.00
2010,08,14,15,44,34.00
2010,08,14,15,45,34.00
2010,08,14,15,46,33.90
2010,08,14,15,47,33.90
2010,08,14,15,48,34.00
2010,08,14,15,49,34.10
2010,08,14,15,50,34.10
2010,08,14,15,51,34.10
2010,08,14,15,52,34.10
2010,08,14,15,53,34.20
2010,08,14,15,54,34.20
2010,08,14,15,55,34.20
2010,08,14,15,56,34.30
2010,08,14,15,57,34.30
2010,08,14,15,58,34.20
2010,08,14,15,59,34.10
2010,08,14,16,00,34.10
2010,08,14,16,01,34.10
2010,08,14,16,02,34.10
2010,08,14,16,03,34.00
2010,08,14,16,04,34.00
2010,08,14,16,05,33.90
2010,08,14,16,06,33.90
2010,08,14,16,07,33.90
2010,08,14,16,08,34.00
2010,08,14,16,09,33.90
2010,08,14,16,10,34.00
2010,08,14,16,11,34.00
2010,08,14,16,12,34.10
2010,08,14,16,13,34.10
2010,08,14,16,14,34.10
2010,08,14,16,15,34.10
2010,08,14,16,16,34.10
2010,08,14,16,17,34.00
2010,08,14,16,18,34.00
2010,08,14,16,19,33.90
2010,08,14,16,20,33.90
2010,08,14,16,21,33.90
2010,08,14,16,22,33.90
2010,08,14,16,23,33.90
2010,08,14,16,24,33.90
2010,08,14,16,25,33.90
2010,08,14,16,26,33.90
2010,08,14,16,27,33.90
2010,08,14,16,28,33.90
2010,08,14,16,29,33.90
2010,08,14,16,30,33.90
2010,08,14,16,31,33.90
2010,08,14,16,32,33.90
2010,08,14,16,33,33.90
2010,08,14,16,34,33.80
2010,08,14,16,35,33.90
2010,08,14,16,36,33.90
2010,08,14,16,37,33.90
2010,08,14,16,38,33.90
2010,08,14,16,39,33.90
2010,08,14,16,40,33.90
2010,08,14,16,41,33.80
2010,08,14,16,42,33.80
2010,08,14,16,43,33.80
2010,08,14,16,44,33.90
2010,08,14,16,45,33.80
2010,08,14,16,46,33.80
2010,08,14,16,47,33.80
2010,08,14,16,48,33.70
2010,08,14,16,49,33.80
2010,08,14,16,50,33.80
2010,08,14,16,51,33.80
2010,08,14,16,52,33.80
2010,08,14,16,53,33.80
2010,08,14,16,54,33.80
2010,08,14,16,55,33.80
2010,08,14,16,56,33.80
2010,08,14,16,57,33.80
2010,08,14,16,58,33.80
2010,08,14,16,59,33.90
2010,08,14,17,00,33.90
2010,08,14,17,01,33.80
2010,08,14,17,02,33.90
2010,08,14,17,03,34.00
2010,08,14,17,04,34.10
2010,08,14,17,05,34.10
2010,08,14,17,06,34.10
2010,08,14,17,07,34.10
2010,08,14,17,08,34.00
2010,08,14,17,09,34.00
2010,08,14,17,10,33.90
2010,08,14,17,11,33.90
2010,08,14,17,12,33.90
2010,08,14,17,13,33.90
2010,08,14,17,14,33.90
2010,08,14,17,15,33.90
2010,08,14,17,16,33.90
2010,08,14,17,17,34.00
2010,08,14,17,18,34.10
2010,08,14,17,19,34.10
2010,08,14,17,20,34.10
2010,08,14,17,21,34.10
2010,08,14,17,22,34.10